sat.trackr.live / text

‹ back to catalog

HULIANWANG DIGUI-108

NORAD 66918 · 2025-285D

PAYLOAD ACTIVE UNKNOWN

§ Identity

Operator
Country
PRC
Launch date
2025-12-06
Launch site
WSC
Launch vehicle
Mass (kg)
RCS (m²)

External: N2YO · Heavens-Above · Gunter

§ Orbital elements

Epoch: 2026-05-24T22:05:23.070624Z

Period
108.33 min
Inclination
50.0046°
Eccentricity
0.0001049
Mean motion
13.29325263 rev/d
Perigee alt
1,148.5 km
Apogee alt
1,150.1 km
Semi-major
7,527.4 km
B*
4.4624e-5
RAAN
229.4424°
Arg perigee
212.3791°
Mean anomaly
147.7017°
Rev number
2,296

§ Raw data

HULIANWANG DIGUI-1081 66918U 25285D   26144.92040591 -.00000103  00000+0  44624-4 0  99972 66918  50.0046 229.4424 0001049 212.3791 147.7017 13.29325263 22965

JSON: /api/v1/satellites/66918 · /tle

For live sub-satellite position, see the globe view (requires WebGL).

§ Visibility from observer

Set your observer location to see the next 7 days of passes ≥ 10°. The values pass through the URL so the page stays shareable.

No JS? Fill the form by hand. The geolocation button needs JavaScript.